Regional Weather Roundup
Issued by NWS

Home | Current Version | Previous Version | Graphics & Text | Print | Product List | Glossary On
Versions: 1 2 3 4 5 6 7 8 9 10 11 12 13 14 15 16 17 18 19 20 21 22 23 24 25 26 27 28 29 30 31 32 33 34 35 36 37 38 39 40 41 42 43 44 45 46 47 48 49 50
000
ASUS43 KIND 042159
RWRIN

WEATHER ROUNDUP FOR INDIANA
NATIONAL WEATHER SERVICE INDIANAPOLIS IN
600 PM EDT TUE AUG 04 2015

NOTE: "FAIR" INDICATES FEW OR NO CLOUDS BELOW 12,000 FEET WITH NO
SIGNIFICANT WEATHER AND/OR OBSTRUCTIONS TO VISIBILITY.

* - STATION DOES NOT REPORT WEATHER SUCH AS PRECIPITATION OR FOG.

+ - STATION NOT QUALITY CONTROLLED BY THE NATIONAL WEATHER SERVICE.
    USE DATA WITH CAUTION...ESPECIALLY DEWPOINT AND RELATIVE
    HUMIDITY OBSERVATIONS.

INZ001>003-010>013-019-020-042300-
NORTHWEST INDIANA

CITY           SKY/WX    TMP DP  RH WIND       PRES   REMARKS
GARY /AIRPORT/ PTSUNNY   81  57  44 NE6       29.96F

$$

LMZ046-743>745-042300-
SOUTHERN LAKE MICHIGAN

STATION/POSITION TIME  TEMP    WIND        PRES    WAVE
                       AIR SEA DIR/SP/G            HT
                 (UTC) (F)     (DEG/KT/KT) (MB)    (FT)
BURNS HARBOR     2100   76      40/  6/  7 1015.2S
MICHIGAN CITY    2100   76     350/  4/  5   N/A
5NW MICH CITY    2100   76 77   30/  4/  4   N/A     1

$$

INZ004-005-014>016-021>024-042300-
NORTH CENTRAL INDIANA

CITY           SKY/WX    TMP DP  RH WIND       PRES   REMARKS
ELKHART        MOSUNNY   79  50  36 W10G16    29.99R
GOSHEN         MOSUNNY   76  56  49 W8        29.98R
SOUTH BEND     MOSUNNY   79  53  40 NW7       29.98S

$$

INZ006>009-017-018-025>027-042300-
NORTHEAST INDIANA

CITY           SKY/WX    TMP DP  RH WIND       PRES   REMARKS
ANGOLA *+      MOSUNNY   77  55  47 NW9       29.98R
FORT WAYNE     PTSUNNY   79  58  48 W14       29.98S

$$

INZ028-029-035-036-043>045-051>053-042300-
WEST CENTRAL INDIANA

CITY           SKY/WX    TMP DP  RH WIND       PRES   REMARKS
CRAWFORDSVL +  MOSUNNY   77  54  45 W7          N/A
GREENCASTLE +  PTSUNNY   79  57  47 W7        30.00F
LAFAYETTE      MOSUNNY   80  58  46 NW10      29.98F
TERRE HAUTE    PTSUNNY   80  62  54 N8        29.98F

$$

INZ030>032-037>040-046>048-054>057-064-065-042300-
CENTRAL INDIANA

CITY           SKY/WX    TMP DP  RH WIND       PRES   REMARKS
GREENWOOD *+   PTSUNNY   81  59  47 W7        30.00
INDIANAPOLIS   PTSUNNY   81  57  43 W14       29.99S
-EAGLE CREEK   PTSUNNY   80  59  48 W9        29.99S
KOKOMO *+      PTSUNNY   79  59  50 NW12      29.99F
MT COMFORT *+  MOSUNNY   81  46  30 W9        30.00R
SHELBYVILLE    PTSUNNY   81  64  56 SW9       29.98S

$$

INZ033-034-041-042-049-050-058-059-042300-
EAST CENTRAL INDIANA

CITY           SKY/WX    TMP DP  RH WIND       PRES   REMARKS
MUNCIE         PTSUNNY   77  60  55 W12       29.99S

$$

INZ060-061-067>069-081>083-085>088-042300-
SOUTHWEST INDIANA

CITY           SKY/WX    TMP DP  RH WIND       PRES   REMARKS
EVANSVILLE     LGT RAIN  81  66  60 W16G22    29.96S
HUNTINGBURG *+ PTSUNNY   84  72  65 NW6       29.96S

$$

INZ062-063-066-070>080-084-089>092-042300-
SOUTH CENTRAL AND SOUTHEAST INDIANA

CITY           SKY/WX    TMP DP  RH WIND       PRES   REMARKS
BLOOMINGTON    PTSUNNY   78  67  68 VRB3      30.00R
MADISON *+     MOSUNNY   82  61  47 NW5       30.00S
SEYMOUR +      PTSUNNY   82  64  54 NW3       29.98S

$$



USA.gov is the U.S. government's official web portal to all federal, state and local government web resources and services.